Location: Unspecified
(0.0000°N, 0.0000°E)
Time: 03:01:37
(UTC+02:00)

Cosmos 773 Rocket - Visible Passes

Search period start: 24 July 2016 00:00
Search period end: 03 August 2016 00:00
Orbit: 746 x 777 km, 74.1° (Epoch: 23 July)

Date Brightness Start Highest point End Pass type
(mag) Time Alt. Az. Time Alt. Az. Time Alt. Az.
24 Jul 6.4 05:28:58 15° ESE 05:30:00 16° ESE 05:33:02 10° ENE visible
24 Jul 4.9 07:09:09 19° WSW 07:11:37 28° WNW 07:15:56 10° NNW visible
25 Jul 3.9 06:31:52 54° WSW 06:32:41 62° WNW 06:37:43 10° N visible
26 Jul 4.6 05:54:31 53° ENE 05:54:31 53° ENE 05:58:47 10° NNE visible
27 Jul 6.3 05:17:07 19° ENE 05:17:07 19° ENE 05:19:05 10° NE visible
27 Jul 5.6 06:57:18 16° WNW 06:57:18 16° WNW 06:59:36 10° NW visible
28 Jul 5.4 06:19:49 24° NNW 06:19:49 24° NNW 06:22:09 10° NNW visible
29 Jul 6.0 05:42:17 19° N 05:42:17 19° N 05:43:41 10° N visible
